Other Public Products
Issued by NWS Charleston, SC

Current Version | Previous Version | Graphics & Text | Print | Product List | Glossary On
Versions: 1 2 3 4 5 6 7 8 9 10 11 12 13 14 15 16 17 18 19 20 21 22 23 24 25 26 27 28 29 30 31 32 33 34 35 36 37 38 39 40 41 42 43 44 45 46 47 48 49 50
000 FPUS82 KCHS 251712 OPUCHS TEST...KCHS/KSAV Gateway Observations...TEST National Weather Service Charleston SC 100 PM EDT SUN JUN 25 2017 NOTE: "fair" indicates few or no clouds below 12,000 feet with no significant weather and/or obstructions to visibility. SCZ050-WAZ558-NCZ071-TXZ119-213-PAZ071-DCZ001-FLZ074-172-MI076- NYZ176-178-MAZ016-IL014-TNZ027-NJZ106-GAZ044-MD014-251800- ...Gateway Observations for Charleston International... CITY SKY/WX TMP DP RH WIND PRES REMARKS Chas Airport PTSUNNY 88 73 61 SW7 30.07F HX 95 Seattle MOSUNNY 77 56 48 W5 29.93F Charlotte CLOUDY 79 63 57 N7 30.13F Dallas DFW MOSUNNY 83 65 54 SE12 30.21S Dallas Love MOSUNNY 83 64 52 E14 30.22S Philladelphia PTSUNNY 84 56 38 W14G20 29.99F Wash National PTSUNNY 85 59 41 NW14 30.03F Baltimore PTSUNNY 81 58 45 W14 30.01F Miami PTSUNNY 89 74 60 SE10 30.13S HX 98 Detroit PTSUNNY 71 47 42 NW15G23 30.04R Newark PTSUNNY 84 53 34 SW15G24 29.96F Laguardia PTSUNNY 83 56 39 SW10 29.96F J F K PTSUNNY 80 60 50 S10 29.99F Boston Logan MOSUNNY 80 53 39 SW8 29.91F Ft. Lauderdale PTSUNNY 88 74 63 SE12 30.12S HX 96 Chicago O`Hare PTSUNNY 69 45 41 W14G25 30.10S Chicago Midway PTSUNNY 69 46 43 W17G25 30.11S Houston Bush CLOUDY 83 74 74 NE10 30.16F Houston Hobby CLOUDY 86 75 69 E9 30.15S HX 95 Nashville MOSUNNY 80 50 34 NW8 30.24F Atlanta CLOUDY 73 62 68 NW10 30.17S $$ GAZ044-118-TXZ119-213-NCZ071-DCZ001-MDZ014-506-PAZ021-071-NJZ106- NYZ176-178-MAZ106-OHZ011-021-055-MIZ076-KYZ091-ILZ014-INZ047- MNZ060-ONZ431-251800- ...Gateway Observations for Savannah International... CITY SKY/WX TMP DP RH WIND PRES REMARKS Savannah Arpt PTSUNNY 92 72 51 S9 30.06F HX 99 Atlanta CLOUDY 73 62 68 NW10 30.17S Charlotte CLOUDY 79 63 57 N7 30.13F Dallas DFW MOSUNNY 83 65 54 SE12 30.21S Houston Bush CLOUDY 83 74 74 NE10 30.16F Wash National PTSUNNY 85 59 41 NW14 30.03F Wash Dulles PTSUNNY 81 52 36 W15 30.03F Baltimore PTSUNNY 81 58 45 W14 30.01F Philadelphia PTSUNNY 84 56 38 W14G20 29.99F Newark PTSUNNY 84 53 34 SW15G24 29.96F Laguardia PTSUNNY 83 56 39 SW10 29.96F J F K PTSUNNY 80 60 50 S10 29.99F Boston MOSUNNY 80 53 39 SW8 29.91F Pittsburg MOSUNNY 71 50 47 W14G20 30.07F Akron MOSUNNY 74 44 34 W22G31 30.05F Cleveland MOSUNNY 75 49 39 W23 30.04S Cincinnati MOSUNNY 76 50 40 W14G25 30.15F Columbus SUNNY 75 49 38 W22G31 30.11F Detroit PTSUNNY 71 47 42 NW15G23 30.04R Chicago O`Hare PTSUNNY 69 45 41 W14G25 30.10S Minneapolis CLOUDY 59 47 64 NW16G25 30.16R Indianapolis MOSUNNY 72 48 42 W17 30.16S Toronto Canada PTSUNNY 63 50 63 W15G24 29.95S $$

USA.gov is the U.S. government's official web portal to all federal, state and local government web resources and services.